Regional Weather Roundup
Issued by NWS

Home | Current Version | Previous Version | Text Only | Print | Product List | Glossary On
Versions: 1 2 3 4 5 6 7 8 9 10 11 12 13 14 15 16 17 18 19 20 21 22 23 24 25 26 27 28 29 30 31 32 33 34 35 36 37 38 39 40 41 42 43 44 45 46 47 48 49 50
000
ASUS43 KDMX 291401
RWRIA

WEATHER ROUNDUP FOR IOWA
NATIONAL WEATHER SERVICE DES MOINES IA
900 AM CDT THU JUN 29 2017

NOTE: "FAIR" INDICATES FEW OR NO CLOUDS BELOW 12,000 FEET WITH NO
SIGNIFICANT WEATHER AND/OR OBSTRUCTIONS TO VISIBILITY.

* - THESE STATIONS ARE NOT NWS STATIONS...THUS NOT UNDER NWS
QUALITY CONTROL.  THEY ALSO DO NOT REPORT WEATHER SUCH
AS PRECIPITATION OR FOG.

IAZ001>003-012>014-020>022-031>034-043>046-291500-
   NORTHWEST IOWA

CITY           SKY/WX    TMP DP  RH WIND       PRES   REMARKS
CARROLL *      CLOUDY    72  68  88 SW10      29.77R
CHEROKEE *     PTSUNNY   67  65  93 N3        29.78R
DENISON *      CLOUDY    72  68  88 VRB6      29.79R
LE MARS *      CLOUDY    70  63  78 NE7       29.78R
ORANGE CITY *  PTSUNNY   70  63  78 E6        29.79R
SHELDON *      PTSUNNY   72  59  64 NE6       29.77R
SIOUX CITY     CLOUDY    71  65  81 SE5       29.75R
SPENCER        MOSUNNY   70  64  81 CALM      29.79R
STORM LAKE *   CLOUDY    70  64  83 E3        29.79R
$$

IAZ055>058-069>071-079>083-090>094-291500-
   SOUTHWEST IOWA

CITY           SKY/WX    TMP DP  RH WIND       PRES   REMARKS
ATLANTIC *     CLOUDY    72  66  83 SW10      29.81R
AUDUBON *      CLOUDY    72  66  83 S9        29.80R
CLARINDA *     CLOUDY    70  68  94 W10       29.87R
COUNCIL BLFS * CLOUDY    72  70  94 SW15      29.83R
CRESTON *      CLOUDY    70  66  88 SW8       29.83R
HARLAN  *      CLOUDY    70  70 100 S12       29.83R
LAMONI         LGT RAIN  68  66  93 S22G41    29.77F
RED OAK *      CLOUDY    70  66  88 SW10      29.84R
SHENANDOAH *   CLOUDY    70  64  83 SW9G16    29.86R
$$

IAZ047>049-059>061-072>074-084-291500-
   CENTRAL IOWA

CITY           SKY/WX    TMP DP  RH WIND       PRES   REMARKS
AMES           CLOUDY    74  70  87 SW12      29.78R
ANKENY *       CLOUDY    73  66  78 SW15G23   29.80R
BOONE *        CLOUDY    72  68  88 SW10      29.77R
CHARITON *     CLOUDY    68  63  83 S15G24    29.80S
DES MOINES     CLOUDY    73  65  75 SW17      29.78R
GRINNELL*      CLOUDY    70  65  82 S10       29.81R
KNOXVILLE *    CLOUDY    70  63  78 S12G20    29.78S
MARSHALLTOWN   CLOUDY    71  69  93 S3        29.78R
NEWTON *       CLOUDY    70  66  88 SW10      29.80R
PELLA *        CLOUDY    70  64  81 SW8       29.81R
PERRY *          N/A     73  69  89 SW8       29.77R
$$

IAZ004>006-015-016-023>025-035-036-291500-
   NORTH CENTRAL IOWA

CITY           SKY/WX    TMP DP  RH WIND       PRES   REMARKS
ALGONA *       CLOUDY    70  64  83 VRB3G13   29.78R
CLARION *        N/A     68  68 100 CALM      29.79R
ESTHERVILLE    MOSUNNY   67  64  90 N8        29.78R
FORT DODGE *   CLOUDY    70  64  83 CALM      29.79R
MASON CITY     CLOUDY    69  63  81 NW9       29.77S
FOREST CITY *    N/A     70  59  68 N6        29.76S
WEBSTER CITY * CLOUDY    70  68  94 CALM      29.76R
IOWA FALLS *   CLOUDY    69  68  96 CALM      29.79R FOG
$$

IAZ007>011-017>019-026>030-037>042-050>054-066-291500-
   NORTHEAST IOWA

CITY           SKY/WX    TMP DP  RH WIND       PRES   REMARKS
CEDAR RAPIDS   CLOUDY    69  67  93 SW12      29.79R
CHARLES CITY * CLOUDY    68  66  94 NW7       29.77R
CLINTON *      MOSUNNY   73  67  81 W13       29.79R
DECORAH *      CLOUDY    68  63  83 VRB5      29.74S
DUBUQUE        CLOUDY    69  64  84 W17       29.77S
MONTICELLO *   CLOUDY    70  66  88 SW12      29.78R
OELWEIN *      PTSUNNY   68  68 100 SW7       29.79R
WATERLOO       CLOUDY    69  65  86 SW5       29.77R
$$

IAZ064-065-067-068-078-291500-
   EAST CENTRAL IOWA

CITY           SKY/WX    TMP DP  RH WIND       PRES   REMARKS
IOWA CITY      MOSUNNY   73  64  73 SW9       29.81R
MT. PLEASANT * CLOUDY    69  62  79 SW16      29.82R
MUSCATINE *    PTSUNNY   73  63  68 W9        29.80S
QUAD CITIES    CLOUDY    73  63  70 W10       29.79R
$$

IAZ062-063-075>077-085>089-095>099-291500-
   SOUTHEAST IOWA

CITY           SKY/WX    TMP DP  RH WIND       PRES   REMARKS
BURLINGTON     CLOUDY    70  64  81 SW14G22   29.82R
FAIRFIELD *    CLOUDY    70  63  78 SW12G18   29.81S
FORT MADISON * CLOUDY    70  64  83 SW10G18   29.84R
KEOKUK *       CLOUDY    70  63  78 SW17      29.83S
OSKALOOSA *      N/A     68  63  83 SW15      29.81R
OTTUMWA        CLOUDY    69  64  84 SW12      29.81R
WASHINGTON *   CLOUDY    72  64  78 SW16      29.82R
$$

ABBREVIATIONS USED IN REMARKS
   TC - TEMPERATURES IN CELSIUS
  WCI - WIND CHILL INDEX
   HX - HEAT INDEX
  VSB - VISIBILITY
$$





USA.gov is the U.S. government's official web portal to all federal, state and local government web resources and services.